Latest METARs, TAFs and NOTAMs for MYNN


---------------------------------------------------------------------------
	(OBSERVATIONS)
MYNN 161700Z 08007KT 9999 FEW014CB SCT018TCU 31/23 A3005=
MYNN 161600Z 02005KT 9999 SCT017TCU 31/22 A3007=
MYNN 161500Z 07005KT 9999 FEW016TCU 31/25 A3009=
---------------------------------------------------------------------------
	(TERMINAL AREA FORECAST)
MYNN 161600Z 1618/1718 07005KT 9999 SCT018 PROB30 TEMPO 1700/1709
    CAVOK
    00000KT=
---------------------------------------------------------------------------
	(NOTAMS)


MYNN A0068/13 VOR Y RWY 14 FEEDER RTE FM MAJUR TO MUNIE NOT AVBL
    VOR Y RWY 14 FEEDER RTE FM MELON TO MUNIE NOT AVBL. SFC -
    UNL, 19 APR 19:55 2013 UNTIL PERM. CREATED: 19 APR 19:51
    2013

MYNN A0069/13 VOR Y RWY 09 FEEDER RTE FM MAJUR TO MUSSE NOT AVBL
    REMOVE PROCEDURE NOTE 'RADAR REQUIRED' FM APP CHART. SFC
    - UNL, 19 APR 19:55 2013 UNTIL PERM. CREATED: 19 APR 19:52
    2013

MYNN A0070/13 VOR Y RWY 32 FEEDER RTE FM PRUNE TO WELKS NOT AVBL
    REMOVE PROCEDURE NOTE 'RADAR REQUIRED' FM APP CHART. SFC
    - UNL, 19 APR 19:55 2013 UNTIL PERM. CREATED: 19 APR 19:54
    2013

MYNN A0094/14 SIX TEMPORARY CRANES WITH RED OBSTRUCTION LIGHTS
    ON TOP LOCATION N 25 04 14.65 W 077 23 53.63 CRANES 427FT
    AMSL 3.81 NM NE OF RWY 27 ILS RWY 14, RNAV (GNSS) RWY 09
    RNAV (GNSS) RWY 14 RNAV (GNSS) RWY 32 VOR Z RWY 09 VOR Y
    RWY 09 VOR Z RWY 14 VOR Y RWY 14 VOR Z RWY 32 VOR Y RWY 32
    SRE RWY 09 SRE RWY 14 SRE RWY 32 CIRCLING CAT C OCA 860 /
    OCH 844 VIS CAT C 4600. 30 JUN 21:00 2014 UNTIL 30 SEP 21:00
    2014. CREATED: 30 JUN 19:35 2014

MYNN A0117/14 WITH THE EXCEPTION OF MYNN AND MYGF RNAV PROC IN
    THE BAHAMAS ARE NOT AUTH DUE TO AIRSPACE CLASSIFICATION RESTRICTIONS.
    29 JUL 12:00 2014 UNTIL 31 OCT 21:00 2014. CREATED: 28 JUL
    16:23 2014

MYNN A0129/14 CHECKLIST (A) SERIES YEAR=2010 0277 YEAR=2013 0068
    0069 0070 YEAR=2014 0086 0089 0090 0091 0092 0093 0094 0095
    0096 0097 0098 0099 0100 0117 0118 0128 LATEST PUBLICATIONS
    AIP AMDT 02/14 EFFECTIVE AUGUST 21, 2014 AIC 04/14. 30 AUG
    01:00 2014 UNTIL 30 SEP 23:59 2014. CREATED: 29 AUG 19:50
    2014

MYNN A0141/14 RWY 14/32CLSD DUE TO MAINT. 17 SEP 11:30 2014 UNTIL
    17 SEP 15:30 2014. CREATED: 16 SEP 16:20 2014

MYNN A0142/14 TWY INDIA(I) CLSD DUE MAINT. 18 SEP 11:30 2014
    UNTIL 18 SEP 15:30 2014. CREATED: 16 SEP 16:26 2014

MYNN B0016/14 CHECKLIST (B) SERIES YEAR=2014 0012 0014 LATEST
    PUBLICATIONS AIP AMDT 02/14 EFFECTIVE AUGUST 21 2014 AIC
    04/14. 03 SEP 16:30 2014 UNTIL 30 SEP 23:59 2014. CREATED:
    03 SEP 16:08 2014

---------------------------------------------------------------------------